www.pogodaiklimat.ru

Погода и климат >> Архив погоды >> Россия >> Якутия >> Черский


ПОГОДА в Черском

  • Прогноз погоды в Черском
  • Монитор погоды в Черском
  • Климат города

АРХИВ ПОГОДЫ в Черском

Время (UTC), дата Ветер
(напр.,м/с)
 
Видим.   Явления Облачность Т
(С)
Тd
(С)
f
(%)
Тe
(С)
Тes
(С)
Комфортность P
(гПа)
Po
(гПа)
Тmin
(С)
Tmax
(С)
R
(мм)
R24
(мм)
S
(см)
18 9.08 ЮВ 2 20 км дымка ясно +2.7 +2.2 97 -1 -0 1011.2 1011.2
21 9.08 ЮВ 4 20 км ясно +9.3 +6.2 81 +6 +9 1012.3 1009.2 +2.7
00 10.08 ЮВ 6
{10}
20 км 4/0
[As trans]
+15.8 +11.3 75 +14 +17 1010.1 1007.1
03 10.08 Ю 5
{10}
20 км 8/0
[As trans]
+19.6 +11.0 58 +21 +23 комфорт 1008.0 1005.1
06 10.08 ЮВ 4 20 км 8/0
[Cs]
+21.6 +10.5 49 +23 +25 комфорт 1005.7 1002.8
09 10.08 ЮВ 3 20 км 8/0
[Cs]
+19.4 +12.6 65 +21 +21 комфорт 1004.6 1001.7 +21.9
12 10.08 ЮВ 2 20 км 5/0
[Ac trans Cc]
+17.3 +13.9 80 +18 +18 1004.2 1001.2
15 10.08 С 5
{10}
20 км дымка 10/8 1140 м
[Sc Ac As]
+13.9 +12.4 91 +12 +12 1005.4 1002.4
18 10.08 С 6-11
{12}
4000 м слабый дождь 10/9 150 м
[St Ac As]
+8.5 +7.7 95 +4 +4 1009.3 1006.2
21 10.08 С 7-14
{14}
20 км {дождь} 10/10 300 м
[St]
+6.8 +4.2 83 +2 +2 1012.9 1009.8 +6.8 0.0
00 11.08 С 7-13
{14}
20 км {дождь} 8/8 400 м
[St]
+6.8 +3.0 77 +2 +2 1017.4 1014.3
03 11.08 С 6
{11}
20 км 3/3 600 м
[St]
+7.9 +0.9 61 +4 +6 1019.5 1016.4
06 11.08 С 6
{11}
20 км 3/3 1000 м
[St]
+6.9 +1.2 67 +3 +3 1021.9 1018.8
09 11.08 С 5 20 км 3/3 1000 м
[Sc]
+5.0 +0.6 73 +1 +1 1022.6 1019.5 +7.9
12 11.08 С 2 20 км 1/1 1000 м
[Sc]
+1.6 -0.3 87 -2 -2 1022.9 1019.7
15 11.08 СВ 3 20 км 1/1 1000 м
[Sc]
+0.2 -1.9 86 -4 -4 1022.5 1019.3
18 11.08 СВ 2 20 км 6/3 600 м
[Sc Ac As]
+0.9 -2.0 81 -2 -2 1022.3 1019.1
21 11.08 ЮВ 2 20 км 6/0
[Ac As]
+3.8 -0.5 73 +1 +3 1021.7 1018.5 +0.2
00 12.08 З 2 20 км 3/0
[Ci fib]
+8.2 +0.2 57 +7 +13 1020.1 1017.0
03 12.08 СЗ 3 20 км 1/0
[Ci fib]
+11.9 +0.2 45 +11 +16 1017.8 1014.7
06 12.08 С 3 20 км 1/0
[Ci fib]
+13.6 +2.3 46 +13 +15 1015.9 1012.9
09 12.08 С 3 20 км ясно +12.9 +5.0 59 +12 +12 1015.3 1012.3 +13.7
12 12.08 В 4 20 км 3/0
[Ac trans]
+8.3 +0.6 58 +6 +6 1014.7 1011.6
15 12.08 В 3 20 км 4/0
[Ac trans]
+7.0 +1.1 66 +4 +4 1014.8 1011.7
18 12.08 В 4 20 км 4/0
[Ac trans]
+5.0 +0.1 71 +1 +1 1014.8 1011.7
21 12.08 В 4 20 км ясно +8.4 +0.4 57 +6 +8 1015.4 1012.3 +5.2
00 13.08 В 3
{10}
20 км ясно +13.3 -0.2 39 +12 +18 1015.8 1012.8
03 13.08 ЮВ 3 20 км н/о +16.1 -1.9 29 +16 +16 1016.9 1012.7
06 13.08 В 2 20 км ясно +17.1 -0.5 30 +18 +20 1015.5 1012.5
09 13.08 В 3 20 км ясно +15.0 -0.5 35 +15 +15 1016.3 1013.3 +17.5
12 13.08 В 3 20 км ясно +9.2 +1.3 58 +7 +7 1017.3 1014.2
15 13.08 ЮВ 3 20 км 1/0
[Ci fib]
+9.7 +2.1 59 +8 +8 1017.7 1014.6
18 13.08 ЮВ 3 20 км ясно +8.0 +0.4 59 +6 +6 1018.0 1014.9
21 13.08 ЮВ 4 20 км 1/0
[Ci fib]
+12.9 +2.7 50 +11 +13 1018.1 1015.1 +8.0
00 14.08 ЮВ 4 20 км 8/0
[Ci fib]
+15.4 +3.0 43 +15 +18 1017.9 1014.9
03 14.08 Ю 2 20 км 10/0
[Ac As]
+15.8 +6.1 52 +16 +18 1017.4 1014.4
06 14.08 СЗ 1 20 км 10/0
[Ac As]
+15.6 +5.3 50 +16 +17 1017.4 1014.4
09 14.08 З 2 20 км 9/0
[Ac As]
+13.9 +9.2 73 +13 +13 1017.8 1014.8 +15.8
12 14.08 З 1 20 км 9/0
[Ac As]
+11.1 +8.5 84 +11 +11 1018.5 1015.4
15 14.08 ЮВ 1 20 км 3/0
[Ac As]
+7.6 +6.7 94 +7 +7 1018.4 1015.3
18 14.08 ЮВ 1 200 м туман 4/0
[Ac trans]
+6.7 +6.7 100 +5 +6 1018.9 1015.8
21 14.08 ЮВ 3 20 км туман местами 10/10 180 м
[St]
+8.6 +8.4 99 +6 +6 1018.9 1015.8 +6.2
00 15.08 Ю 4 20 км {туман} 10/8 1050 м
[Sc Ac As]
+13.5 +10.3 81 +12 +12 1018.5 1015.5
03 15.08 Ю 4 20 км 10/3 1500 м
[Sc Ac cast]
+15.6 +11.3 76 +15 +16 1017.5 1014.5
06 15.08 ЮЗ 3 20 км 6/0
[Ac cast]
+19.8 +13.1 65 +22 +23 комфорт 1016.7 1013.7
09 15.08 Ю 1 20 км 9/8 1230 м
[Sc Cs]
+18.1 +14.1 77 +19 +19 1016.0 1013.0 +20.0
12 15.08 В 2 20 км 3/0
[Ci fib]
+13.6 +11.3 86 +13 +13 1015.4 1012.4
15 15.08 ЮВ 3 20 км 3/0
[Ci fib]
+11.9 +9.5 85 +10 +10 1013.8 1010.8
18 15.08 ЮВ 3 20 км 4/0
[Ci fib]
+11.1 +9.3 89 +9 +9 1012.0 1009.0
21 15.08 ЮВ 3 20 км 8/0
[Ci fib]
+13.4 +10.3 81 +12 +14 1009.6 1006.6 +11.1
00 16.08 Ю 3 20 км 4/0
[Ci fib]
+20.5 +11.5 56 +23 +28 комфорт 1006.5 1003.6
03 16.08 З 4 20 км 6/0
[Ci fib]
+23.4 +12.2 49 +26 +30 жарко 1004.2 1001.3
06 16.08 С 2 20 км 8/0
[Ac As]
+20.4 +13.6 65 +23 +24 комфорт 1002.7 999.8
09 16.08 штиль 0 20 км 10/0
[As op]
+17.7 +13.6 77 +18 +18 1001.8 998.8 +24.0
12 16.08 ЮВ 1 20 км слабый дождь 10/4 300 м
[Sc Ac As]
+15.3 +14.4 94 +16 +16 1000.7 997.7
15 16.08 Ю 1 20 км {дождь} 10/10 270 м
[St]
+15.5 +15.0 97 +16 +16 1000.1 997.2

 

Местоположение метеостанции Черский (Якутия, Россия): широта 68.73 долгота 161.30 высота над уровнем моря 28 м.

В архиве по умолчанию представлена погода в Черском за последнюю неделю. Архивные данные за месяц целиком и за предыдущие месяцы, начиная с января 2011 года, Вы можете получить, выбрав интересующий диапазон дат из раскрывающегося списка и нажав кнопку "Ввод!".

Внимание! Время в таблицах - всемирное. Для получения местного времени необходимо прибавить поправку, которая в Черском равна 11 ч.

Смотрите также архив погоды в соседних городах и на ближайших метеорологических станциях:

Погода в Анюйске (Чукотка, Россия) (43 км)
Погода в Константиновской (Чукотка, Россия) (65 км)
Погода в Бухте Амбарчик (Чукотка, Россия) (107 км)
Погода в Колымской (Якутия, Россия) (109 км)
Погода на Островном (Чукотка, Россия) (133 км)
Погода в Билибино (Чукотка, Россия) (222 км)
Погода в Раучуе (Чукотка, Россия) (223 км)
Погода в Баимке (Чукотка, Россия) (274 км)
Погода в Андрюшкино (Якутия, Россия) (276 км)
Погода на Айон Острове (Чукотка, Россия) (291 км)

Пояснения к столбцам:

Ветер - указаны скорость ветра в м/с - средняя за 10 мин, порывы в срок и между сроками (в фигурных скобках) и направление, откуда дует ветер: С - северный, СВ - северо-восточный, В - восточный, ЮВ - юго-восточный, Ю - южный, ЮЗ - юго-западный, З - западный, СЗ - северо-западный.
Видимость - горизонтальная дальность видимости в метрах или километрах. При видимости от 1 до 10 км при отсутствии осадков обычно наблюдается дымка, при ухудшении видимости до 1 км и менее - туман. В сухую погоду видимость может ухудшаться дымом, пылью или мглою.
Явления - указаны атмосферные явления, наблюдавшиеся в срок или в последний час перед сроком; фигурными скобками обозначены явления, наблюдавшиеся между сроками (за 1-3 часа до срока); квадратными скобками обозначены град или гололедные отложения с указанием их диаметра в мм.
Облачность - указаны через наклонную черту общая и нижняя облачность в баллах и высота нижней границы облаков в метрах; квадратными скобками обозначены формы облаков: Ci - перистые, Cs - перисто-слоистые, Cc - перисто-кучевые, Ac - высококучевые, As - высокослоистые, Sc - слоисто-кучевые, Ns - слоисто-дождевые, Cu - кучевые, Cb - кучево-дождевые. Подробнее классификацию облаков см. в Атласе облаков (PDF).
T - Температура воздуха - температура, измеренная на высоте 2 м над землей.
Td - Температура точки росы - температура, при понижении до которой содержащийся в воздухе водяной пар достигнет насыщения.
f - Относительная влажность воздуха - влажноcть воздуха, измеренная на высоте 2 м над землей.
Te - Эффективная температура - температура, которую ощущает одетый по сезону человек в тени. Характеристика душности погоды. При расчете учитывается влияние влажности воздуха и скорости ветра на теплоощущения человека.
Tes - Эффективная температура на солнце - температура, которую ощущает человек, с поправкой на солнечный нагрев. Характеристика знойности погоды. Зависит от высоты солнца над горизонтом, облачности и скорости ветра. Ночью, в пасмурную погоду, а также при ветре 12 м/с и более поправка равна нулю.
P - Атмосферное давление - приведенное к уровню моря атмосферное давление.
Po - Атмосферное давление - измеренное на уровне метеостанции атмосферное давление.
Tmin - Минимальная температура - минимум температуры воздуха на высоте 2 м над землей.
Tmax - Максимальная температура - максимум температуры воздуха на высоте 2 м над землей.
R - Количество осадков - Количество выпавших осадков за период времени, мм. При наведении курсора мыши на число - период времени, за который выпало указанное количество осадков.
R24 - Количество осадков - Количество выпавших осадков за 24 часа, мм.
S - Снежный покров - Высота снежного покрова, см. При наведении курсора мыши на число - состояние снежного покрова и степень покрытия местности в баллах.